Volk, WI

9:53 AM CDT on August 18, 2017 (GMT -0500)
Volk

Weather History for KVOK - December, 2014

Change the Weather History Date:

Friday, December 26, 2014

  Actual Average Record
Temperature  
Mean Temperature 32 °F -  
Max Temperature 44 °F 23 °F 46 °F (2011)
Min Temperature 20 °F 12 °F -4 °F (1996)
Degree Days  
Heating Degree Days 33    
Moisture  
Dew Point 29 °F    
Average Humidity 98    
Maximum Humidity 100    
Minimum Humidity 76    
Precipitation  
Precipitation 0.00 in - - ()
Sea Level Pressure  
Sea Level Pressure 29.95 in    
Wind  
Wind Speed 1 mph (NNE)    
Max Wind Speed 6 mph    
Max Gust Speed -    
Visibility 6 miles    
Events Fog    
Averages and records for this station are not official NWS values.
T = Trace of Precipitation, MM = Missing Value Source: NWS Daily Summary

Daily Weather History Graph

Daily Weather History Graph

Search for Another Location

Airport or City:

Trip Planner

Search our weather history database for the weather conditions in past years. The results will help you decide how hot, cold, wet, or windy it might be!

Date:

Astronomy

Dec. 26, 2014 Rise Set
Actual Time 7:34 AM CST 4:29 PM CST
Civil Twilight 7:01 AM CST 5:02 PM CST
Nautical Twilight 6:24 AM CST 5:38 PM CST
Astronomical Twilight 5:49 AM CST 6:13 PM CST
Moon 10:36 AM CST (12/26) 10:22 PM CST (12/26)
Length of Visible Light 10h 00m
Length of Day
8h 54m
Waxing Crescent, 28% of the Moon is Illuminated
Dec 26
Waxing Crescent
Dec 28
First Quarter
Jan 4
Full
Jan 13
Last Quarter
Jan 20
New

Hourly Weather History & Observations

Time (CST) Temp. Windchill Dew Point Humidity Pressure Visibility Wind Dir Wind Speed Gust Speed Precip Events Conditions
12:58 AM 27.3 °F - 27.3 °F 100% 29.89 in 10.0 mi Calm Calm - N/A   Clear
1:58 AM 28.8 °F - 28.8 °F 100% 29.90 in 10.0 mi NNE 1.2 mph - N/A   Clear
2:58 AM 28.2 °F - 28.2 °F 100% 29.91 in 10.0 mi ENE 1.2 mph - N/A   Overcast
3:58 AM 27.5 °F - 27.5 °F 100% 29.91 in 10.0 mi Calm Calm - N/A   Overcast
4:58 AM 25.5 °F - 25.5 °F 100% 29.91 in 5.0 mi Calm Calm - N/A   Clear
5:03 AM 24.8 °F - 24.8 °F 100% 29.87 in 2.0 mi Calm Calm - N/A   Clear
5:08 AM 24.8 °F - 24.8 °F 100% 29.87 in 0.8 mi Calm Calm - N/A   Clear
5:13 AM 24.8 °F - 24.8 °F 100% 29.88 in 0.5 mi Calm Calm - N/A Fog Light Freezing Fog
5:38 AM 24.8 °F 20.5 °F 24.8 °F 100% 29.88 in 0.8 mi North 3.5 mph - N/A   Clear
5:43 AM 23.0 °F - 23.0 °F 100% 29.89 in 0.8 mi Calm Calm - N/A   Clear
5:58 AM 23.5 °F - 23.5 °F 100% 29.94 in 0.8 mi Calm Calm - N/A   Clear
6:28 AM 24.8 °F - 24.8 °F 100% 29.89 in 1.0 mi Calm Calm - N/A   Clear
6:33 AM 23.0 °F - 23.0 °F 100% 29.90 in 1.5 mi Calm Calm - N/A   Clear
6:38 AM 23.0 °F - 23.0 °F 100% 29.90 in 0.8 mi ESE 2.3 mph - N/A   Clear
6:53 AM 23.0 °F - 23.0 °F 100% 29.90 in 0.5 mi East 1.2 mph - N/A Fog Light Freezing Fog
6:58 AM 23.0 °F - 23.0 °F 100% 29.95 in 0.8 mi Calm Calm - N/A   Clear
7:03 AM 23.0 °F - 23.0 °F 100% 29.90 in 2.0 mi Calm Calm - N/A   Clear
7:08 AM 23.0 °F - 23.0 °F 100% 29.90 in 1.2 mi Calm Calm - N/A   Clear
7:13 AM 21.2 °F - 21.2 °F 100% 29.90 in 0.8 mi Calm Calm - N/A   Clear
7:18 AM 23.0 °F - 23.0 °F 100% 29.90 in 0.5 mi Calm Calm - N/A Fog Light Freezing Fog
7:23 AM 21.2 °F - 21.2 °F 100% 29.91 in 0.2 mi Calm Calm - N/A Fog Light Freezing Fog
7:28 AM 21.2 °F - 21.2 °F 100% 29.91 in 0.2 mi Calm Calm - N/A Fog Light Freezing Fog
7:38 AM 21.2 °F - 21.2 °F 100% 29.92 in 0.2 mi Calm Calm - N/A Fog Light Freezing Fog
7:48 AM 21.2 °F - 21.2 °F 100% 29.92 in 0.2 mi West 1.2 mph - N/A Fog Light Freezing Fog
7:53 AM 21.2 °F - 21.2 °F 100% 29.92 in 0.2 mi West 1.2 mph - N/A Fog Light Freezing Fog
7:58 AM 20.7 °F - 20.7 °F 100% 29.97 in 0.2 mi Calm Calm - N/A Fog Light Freezing Fog
8:28 AM 24.8 °F - 24.8 °F 100% 29.92 in 0.5 mi Calm Calm - N/A Fog Light Freezing Fog
8:33 AM 24.8 °F - 24.8 °F 100% 29.92 in 0.8 mi Calm Calm - N/A   Clear
8:38 AM 24.8 °F - 24.8 °F 100% 29.92 in 1.2 mi Calm Calm - N/A   Clear
8:43 AM 26.6 °F - 26.6 °F 100% 29.92 in 2.5 mi Calm Calm - N/A   Clear
8:48 AM 26.6 °F - 26.6 °F 100% 29.92 in 6.0 mi SE 1.2 mph - N/A   Clear
8:58 AM 28.0 °F - 28.0 °F 100% 29.98 in 10.0 mi Calm Calm - N/A   Clear
9:58 AM 33.8 °F - 33.8 °F 100% 29.99 in 10.0 mi ESE 2.3 mph - N/A   Clear
10:58 AM 39.9 °F 36.7 °F 39.9 °F 100% 29.97 in 10.0 mi Variable 4.6 mph - N/A   Clear
11:58 AM 43.3 °F 40.7 °F 38.5 °F 83% 29.97 in 10.0 mi WSW 4.6 mph - N/A   Clear
12:58 PM 42.8 °F 40.1 °F 37.6 °F 82% 29.95 in 10.0 mi West 4.6 mph - N/A   Clear
1:58 PM 43.3 °F - 37.4 °F 80% 29.97 in 10.0 mi West 1.2 mph - N/A   Clear
2:58 PM 44.2 °F - 37.2 °F 76% 29.98 in 10.0 mi NNW 2.3 mph - N/A   Clear
3:58 PM 40.3 °F - 38.7 °F 94% 29.99 in 10.0 mi North 2.3 mph - N/A   Partly Cloudy
4:28 PM 37.4 °F - 37.4 °F 100% 29.96 in 10.0 mi Calm Calm - N/A   Mostly Cloudy
4:58 PM 35.8 °F - 35.8 °F 100% 30.01 in 10.0 mi Calm Calm - N/A   Overcast
5:58 PM 35.2 °F 30.3 °F 35.2 °F 100% 30.03 in 10.0 mi North 5.8 mph - N/A   Overcast
6:58 PM 37.6 °F 35.1 °F 37.6 °F 100% 30.04 in 10.0 mi North 3.5 mph - N/A   Overcast
7:18 PM 37.4 °F 33.8 °F 37.4 °F 100% 30.00 in 10.0 mi NNE 4.6 mph - N/A   Overcast
7:28 PM 37.4 °F 33.8 °F 37.4 °F 100% 30.00 in 10.0 mi NNE 4.6 mph - N/A   Overcast
7:33 PM 37.4 °F 33.8 °F 37.4 °F 100% 30.00 in 10.0 mi NNE 4.6 mph - N/A   Overcast
7:58 PM 36.5 °F - 36.5 °F 100% 30.06 in 10.0 mi North 1.2 mph - N/A   Overcast
8:58 PM 35.2 °F 32.4 °F 35.2 °F 100% 30.04 in 10.0 mi Variable 3.5 mph - N/A   Overcast
9:22 PM 33.8 °F - 33.8 °F 100% 30.00 in 10.0 mi Variable 2.3 mph - N/A   Overcast
9:58 PM 34.2 °F - 34.2 °F 100% 30.04 in 10.0 mi NNE 2.3 mph - N/A   Overcast
10:03 PM 33.8 °F - 33.8 °F 100% 30.00 in 10.0 mi Calm Calm - N/A   Overcast
10:13 PM 33.8 °F - 33.8 °F 100% 30.00 in 10.0 mi North 2.3 mph - N/A   Overcast
10:58 PM 33.3 °F 30.2 °F 33.3 °F 100% 30.01 in 10.0 mi NE 3.5 mph - N/A   Overcast
11:28 PM 32.0 °F 28.7 °F 32.0 °F 100% 29.96 in 10.0 mi NE 3.5 mph - N/A   Overcast
11:58 PM 33.1 °F 27.7 °F 33.1 °F 100% 30.00 in 8.0 mi East 5.8 mph - N/A   Overcast